SCP
1 0 0 0 0 0 0 0 0 0 0 0 0 0 0 0 0 0 1 1 1 1 1 1 1 1 1 1 1 1 1 1 1 1 1 1 1 1 0 0 0 0 0
0 0 0 0 0 0 0 0 0 0 0 0 0 0 0 0 0 0 0 1 1 1 1 1 1 1 1 1 1 1 1 1 1 1 1 1 1 1 1 0 0 0 0
0 0 0 0 0 0 0 0 0 0 0 0 0 0 0 0 0 0 0 1 1 1 1 1 1 1 1 1 1 1 1 1 1 1 1 1 1 1 1 1 0 0 0
0 0 0 0 0 0 0 0 0 0 0 0 0 0 0 0 0 0 0 1 1 1 1 1 2 2 2 1 1 1 1 1 1 1 1 1 1 1 1 1 1 1 1
0 0 0 0 0 0 0 0 0 0 0 0 0 0 0 0 0 0 0 1 1 1 1 1 2 2 2 2 2 1 1 1 1 1 1 1 1 1 1 1 1 1 1
0 0 0 0 0 0 0 0 0 0 0 0 0 0 0 0 0 0 0 1 1 1 1 1 1 2 2 2 2 2 2 2 2 1 1 1 1 1 1 1 1 1 1
0 0 0 0 0 0 0 0 0 0 0 0 0 0 0 0 0 0 0 1 1 1 1 1 1 1 2 2 2 2 2 2 2 2 2 2 1 1 1 1 1 1 1
0 0 0 0 0 0 0 0 0 0 0 0 0 0 0 0 0 0 0 0 1 1 1 1 1 1 1 2 2 2 2 2 2 2 2 2 2 2 1 1 1 1 1
0 0 0 0 0 0 0 0 0 0 0 0 0 0 0 0 0 0 0 0 0 1 1 1 1 1 1 1 1 2 2 2 3 3 3 3 2 2 2 1 1 1 1
0 0 0 0 0 0 0 0 0 0 0 0 0 0 0 0 0 0 0 0 0 1 1 1 1 1 1 1 2 2 2 2 2 3 3 3 3 3 2 2 2 1 1
1 0 0 0 0 0 0 0 0 0 0 0 0 0 0 0 0 0 0 0 0 0 1 1 1 1 1 2 2 2 2 2 2 2 3 3 3 3 3 2 2 1 1
1 1 1 0 0 0 0 0 0 0 0 0 0 1 1 1 1 0 0 0 0 0 0 1 1 1 2 2 2 2 2 2 2 2 2 2 3 3 2 2 2 2 1
1 1 1 1 0 0 0 0 0 0 0 0 0 1 1 1 1 1 1 1 0 0 0 1 1 1 1 2 2 2 2 2 2 1 1 2 2 2 2 2 2 2 2
1 1 1 1 1 1 1 1 1 1 0 0 0 1 1 1 1 1 1 1 1 1 1 1 1 1 1 1 2 2 2 2 2 1 1 1 1 1 2 2 2 2 2
1 2 1 1 1 1 1 1 1 1 1 1 1 1 1 1 1 1 1 1 1 1 1 1 1 1 1 1 1 1 2 2 2 1 1 1 1 1 1 1 2 2 2
1 1 1 1 1 1 1 1 1 1 0 1 1 1 1 1 1 1 1 1 1 1 1 1 1 1 1 1 1 1 1 1 1 1 1 1 1 1 1 1 1 1 1
1 1 1 1 1 1 1 1 1 1 1 1 1 1 1 1 1 1 1 1 1 1 1 1 1 1 1 1 1 2 1 1 1 1 1 1 1 1 1 1 1 1 1
1 1 1 1 1 1 1 1 1 1 1 1 1 1 1 1 1 1 1 1 1 1 1 1 1 1 1 1 1 2 2 1 1 1 1 1 1 1 1 0 0 0 0
2 2 2 1 1 2 2 2 2 2 2 2 2 2 2 2 1 1 2 2 1 1 1 2 2 2 1 1 1 2 2 2 2 2 2 2 1 1 1 1 0 0 0
2 2 2 2 2 2 2 2 2 2 3 3 3 2 2 2 2 2 2 2 2 2 2 2 2 2 2 2 2 3 3 3 3 3 3 3 3 2 2 1 1 1 0
3 3 3 3 3 3 2 3 3 3 3 3 3 2 2 2 2 2 2 3 3 3 3 2 3 3 3 3 3 4 3 3 3 3 4 4 4 3 3 2 1 1 1
4 5 4 4 4 3 3 3 4 4 3 3 3 3 3 3 2 2 2 2 2 3 3 3 3 3 3 3 3 3 3 3 3 3 3 3 3 3 2 2 1 1 1
7 6 5 5 5 4 3 3 3 4 4 3 3 3 3 3 2 2 2 2 2 2 2 2 2 3 3 3 3 3 3 3 3 3 3 3 2 2 2 1 1 1 0
9 9 8 7 7 6 4 3 3 3 4 4 4 3 3 3 3 3 2 2 1 1 1 1 2 2 2 2 2 2 2 2 2 2 2 2 2 1 1 1 0 0 0
11 11 10 9 9 8 6 4 3 4 5 5 4 4 4 4 3 2 2 2 2 1 1 1 1 1 2 2 2 2 2 2 2 2 2 2 2 1 1 1 0 0 0
11 12 12 11 10 9 8 6 5 5 6 5 5 4 4 4 3 2 2 2 2 2 2 1 1 1 1 1 1 2 2 2 2 2 2 2 2 1 1 1 1 1 0
Wind_Speed
3 3 2 2 2 2 3 3 2 3 3 2 3 4 4 4 4 4 4 12 13 13 13 13 13 12 11 10 10 9 8 8 8 8 8 8 8 8 7 7 7 7 7
4 3 3 2 2 2 2 3 3 3 2 2 3 3 4 4 4 4 4 7 12 12 12 13 12 12 11 10 10 9 9 9 8 7 7 7 7 7 7 7 7 7 7
4 4 3 2 2 2 3 3 3 3 3 3 3 3 3 3 4 4 4 4 5 10 12 11 11 11 10 10 10 10 9 9 8 8 8 7 7 7 7 7 7 6 6
4 4 3 3 2 2 3 3 3 3 2 2 2 2 2 2 3 4 4 4 3 4 8 11 11 10 10 10 10 10 9 9 8 8 8 7 7 7 7 7 7 7 7
4 4 3 2 3 3 2 3 2 3 3 2 2 2 1 2 2 3 4 4 4 4 4 7 10 10 10 10 10 10 9 9 9 9 9 8 8 8 7 7 7 7 7
4 3 3 2 3 3 2 2 3 2 2 2 2 2 1 1 1 2 4 4 4 5 4 4 4 6 10 10 10 10 10 10 9 9 9 9 9 8 8 8 7 7 6
3 3 3 2 2 2 3 3 2 3 1 2 2 1 1 1 1 2 2 3 4 4 4 4 3 3 4 8 9 9 10 10 9 9 9 9 9 9 8 8 7 7 7
3 3 3 3 2 2 3 2 3 2 1 2 2 2 1 2 2 1 1 2 3 2 4 5 4 4 4 3 5 9 9 9 9 10 9 9 9 8 8 8 7 7 7
3 2 3 3 3 3 3 3 3 4 2 1 2 3 3 2 1 2 1 2 2 2 3 3 5 5 6 4 4 7 10 10 10 10 9 9 8 8 8 8 8 8 8
3 3 3 3 2 2 2 3 3 3 3 2 1 1 2 3 2 1 2 1 2 3 4 4 4 5 5 4 5 8 10 10 10 11 10 9 9 9 9 9 9 9 8
2 2 3 3 2 2 2 2 2 2 2 3 2 1 1 1 1 2 1 1 1 2 3 3 3 4 4 5 5 7 9 10 10 11 10 10 10 10 10 10 9 9 9
1 2 2 2 2 2 2 2 2 3 2 2 2 2 2 2 2 2 2 2 2 2 2 2 3 3 4 5 7 9 10 10 11 11 10 10 10 10 10 11 10 10 9
2 2 2 2 2 2 2 2 2 2 2 2 3 2 2 2 2 2 2 2 2 2 2 2 3 3 4 3 5 9 10 10 10 10 10 10 10 10 11 10 10 10 9
3 3 3 2 3 3 3 2 2 2 1 2 2 2 2 2 2 2 3 3 1 2 2 3 2 3 3 3 5 8 6 9 10 10 10 9 10 10 10 9 9 9 8
3 3 4 3 3 3 3 3 2 2 2 2 2 2 2 2 1 2 2 3 3 2 3 3 3 3 3 3 5 4 4 8 10 10 10 9 9 9 9 9 8 8 7
3 3 3 3 3 3 3 3 2 2 2 2 1 1 1 1 1 1 2 2 2 3 3 3 3 3 3 3 4 4 4 7 8 8 9 9 10 10 9 9 9 9 8
3 4 4 3 3 3 3 2 2 2 2 2 2 2 3 2 2 2 1 1 2 2 3 3 2 2 1 2 2 2 3 3 4 7 8 9 10 9 9 10 9 9 9
4 4 4 4 4 4 3 3 3 3 3 3 3 2 3 2 2 2 2 2 2 3 3 3 2 1 2 2 2 2 3 3 3 6 8 9 9 9 9 9 9 10 10
4 4 4 4 4 4 4 4 4 4 4 4 3 3 3 2 3 2 2 2 2 2 2 2 3 2 1 1 1 2 2 2 4 4 7 9 9 10 10 10 10 10 10
5 4 4 4 4 4 4 4 4 4 3 4 4 4 3 4 4 3 3 3 2 2 2 2 2 2 1 1 1 1 2 2 3 3 4 5 7 9 10 10 10 10 10
5 4 4 3 3 4 4 4 4 4 4 4 3 3 4 4 4 4 3 3 2 2 2 2 2 2 2 1 2 2 3 2 3 3 2 3 3 4 5 8 10 10 10
5 4 4 4 4 4 4 5 5 4 3 4 4 4 4 4 4 5 5 4 4 4 4 3 3 3 4 3 2 2 2 2 3 3 3 4 3 4 5 5 8 10 11
5 4 4 4 4 4 4 5 6 4 4 4 4 3 3 3 3 3 4 4 4 6 6 5 4 5 4 4 3 3 3 4 5 3 3 4 3 5 5 6 9 11 11
4 4 4 4 4 4 4 5 5 4 3 4 4 4 4 3 3 2 2 3 3 4 5 5 5 5 4 4 5 5 5 4 3 2 3 4 4 5 5 5 9 11 11
4 4 4 4 4 4 4 5 5 3 3 4 4 3 4 3 3 3 2 3 4 4 5 5 5 5 5 5 3 2 2 2 4 4 3 3 3 3 4 5 7 10 11
4 3 3 4 4 4 4 6 6 3 3 3 3 3 3 3 4 4 3 3 4 5 3 3 3 4 4 5 5 4 4 4 3 3 4 4 3 2 3 3 4 4 6
Wind_Direction
137 131 128 123 127 120 130 136 138 134 133 137 136 140 143 147 155 155 163 168 169 172 175 176 176 178 179 182 186 190 192 193 191 194 199 202 203 202 203 207 206 208 210
145 143 137 140 143 136 134 140 146 138 138 129 122 128 134 139 146 154 162 170 175 178 182 183 184 186 187 190 194 196 197 198 196 195 199 205 206 202 206 207 208 211 211
146 148 143 144 149 139 126 119 120 121 120 114 111 117 132 139 149 163 170 171 176 185 187 188 189 191 192 195 199 199 201 201 201 202 205 205 203 204 205 207 210 212 208
140 138 139 144 143 129 123 121 116 110 107 105 105 118 124 141 158 167 168 171 173 181 189 192 192 191 195 200 200 199 200 201 202 202 201 203 205 206 207 209 212 211 209
134 131 136 142 136 122 117 131 119 121 121 116 120 125 129 150 167 173 171 178 179 182 183 190 194 196 202 204 204 204 204 204 204 205 207 209 211 209 208 209 209 208 212
134 132 132 137 131 120 115 121 126 123 128 136 125 104 131 188 181 188 189 182 181 187 188 191 200 207 207 208 209 212 211 211 212 212 211 212 213 212 211 210 210 208 212
132 130 133 134 133 135 148 143 128 127 131 126 96 56 3 322 212 202 193 184 190 194 192 195 199 204 207 210 214 216 219 220 218 217 216 216 216 213 212 213 209 211 215
146 146 141 151 152 144 146 148 136 134 156 141 129 112 38 353 335 262 188 183 189 188 199 203 202 204 209 208 212 218 220 221 221 219 217 216 217 216 212 210 211 213 216
151 144 149 153 156 155 165 175 167 158 161 180 154 144 150 204 280 321 229 193 186 186 205 207 206 210 209 209 212 216 216 218 221 221 216 211 211 208 206 209 213 216 218
155 149 147 154 156 160 170 191 179 167 153 174 218 181 170 164 164 261 321 278 216 210 215 213 208 208 207 205 211 210 213 216 218 220 215 211 207 207 209 212 217 221 223
171 164 161 164 169 174 177 178 165 165 159 169 182 177 167 168 158 157 229 283 292 242 223 218 213 210 207 206 211 212 212 215 216 218 215 213 211 211 212 215 220 222 225
187 188 170 164 170 172 176 181 180 174 177 172 176 172 170 174 189 173 195 223 243 257 244 227 218 215 210 206 215 213 213 216 218 216 213 212 214 216 218 220 222 225 229
192 207 187 177 174 179 176 175 176 188 189 183 190 193 191 198 181 165 165 205 234 263 262 245 227 219 219 208 217 217 217 214 215 215 215 215 216 218 222 222 222 225 229
199 193 181 176 179 183 184 176 179 201 201 205 208 197 195 212 183 173 174 173 215 279 271 260 253 224 224 215 221 216 220 214 211 211 214 215 217 219 220 220 220 222 226
195 189 187 182 186 188 183 174 189 198 199 214 217 209 210 228 208 197 182 173 174 220 258 254 247 234 218 214 215 211 217 219 213 214 214 215 217 218 219 219 218 219 222
190 180 185 185 188 194 188 183 190 198 198 226 216 211 234 246 241 221 204 198 183 186 233 248 240 248 223 221 212 208 218 218 218 216 214 215 219 219 218 218 219 219 219
175 175 183 185 193 197 195 190 201 193 202 227 237 223 240 237 242 242 219 207 205 185 225 263 253 262 229 223 226 219 219 215 223 220 218 217 218 218 219 222 220 221 221
185 185 185 186 196 200 197 197 209 208 205 220 235 235 250 248 247 247 230 227 224 210 206 248 263 245 233 224 213 218 228 221 225 224 221 221 221 221 221 223 224 224 223
189 189 189 193 202 202 198 201 204 206 208 217 223 224 240 241 252 256 246 244 241 233 208 215 245 240 245 237 215 248 240 238 230 230 224 225 226 228 227 227 226 225 224
194 196 198 199 198 199 199 201 202 207 215 224 225 223 227 225 236 244 245 245 234 232 226 221 240 244 241 238 189 231 262 253 246 238 229 226 229 228 231 232 228 226 226
205 202 198 204 204 203 206 202 209 212 217 230 238 235 232 228 231 231 236 236 225 221 225 225 238 242 243 227 226 216 234 253 258 233 230 234 227 233 233 233 231 227 226
209 202 203 208 213 224 221 204 200 213 218 224 238 244 247 242 248 247 246 236 214 213 219 221 229 235 244 236 231 220 219 226 258 233 208 245 215 235 238 229 231 228 226
206 209 211 207 217 232 226 211 203 205 214 222 225 231 250 256 245 251 260 260 250 240 218 211 223 236 232 223 210 224 225 225 236 221 193 242 228 240 242 238 229 228 228
202 209 208 210 216 233 220 209 202 206 217 230 224 217 224 246 249 234 250 265 267 260 242 227 226 237 233 219 204 210 220 238 262 239 187 228 233 238 245 241 234 230 230
201 206 205 205 213 237 225 212 201 212 224 238 239 230 220 224 240 220 215 248 272 278 270 247 236 242 246 240 221 187 208 226 264 257 208 213 234 244 249 245 242 234 233
204 204 210 211 213 228 227 216 203 203 218 237 248 247 234 229 241 216 205 223 255 264 275 288 277 277 263 255 237 209 206 219 242 254 219 202 226 208 263 255 239 232 232